Location: Dompnac
(44.5644°N, 4.1026°E)
Time: 11:28:56
(UTC+00:00)

Cosmos 1891 Rocket - Pass Details

Date: 18 January 2021
Orbit: 934 x 1018 km, 82.9° (Epoch: 24 February)

Event Time Altitude Azimuth Distance (km) Brightness Sun altitude
Rises 18:07:17 0° 332° (NNW) 3,600 7.7 -16.4°
Reaches altitude 10° 18:11:42 10° 302° (WNW) 2,650 7.4 -17.2°
Maximum altitude 18:13:35 12° 283° (WNW) 2,536 7.7 -17.5°
Drops below altitude 10° 18:15:29 10° 264° (W) 2,650 8.1 -17.8°
Sets 18:19:56 0° 234° (SW) 3,599 8.6 -18.6°
